Flag for Switzerland Weather past 2 weeks in Liestal, Basel-Land, Switzerland

Now
54 °F

Partly sunny.


Feels Like: 52 °F
Forecast: 47 / 52 °F
Wind: 7 mph from Southwest

Location: Bale-Mulhouse

Current Time: Dec 18, 2014 at 3:55:52 PM

Latest Report: Dec 18, 2014 at 3:30 PM


Visibility: N/A

Pressure: 30.12 "Hg

Humidity: 88%

Dew point: 50 °F

Location of LiestalLocation

Historic Weather in Liestal — Graph

°F

Liestal temperature yesterday

Maximum temperature yesterday: 45 °F (at 12:00 PM)
Minimum temperature yesterday: 39 °F (at 4:30 AM)
Average temperature yesterday: 42 °F

Past Weeks' High & Low Weather Summary

 TemperatureHumidityPressure
High54 °F (Dec 18, 2:00 PM)100% (Dec 3, 3:00 PM)30.42 "Hg (Dec 3, 3:00 PM)
Low28 °F (Dec 10, 2:00 AM)58% (Dec 12, 11:30 AM)29.80 "Hg (Dec 12, 6:00 PM)
Average41 °F90%30.07 "Hg
* Reported Dec 3 3:00 PM — Dec 18 3:00 PM, Liestal, Weather by CustomWeather, © 2014

Note: Actual official high and low records may vary slightly from our data, if they occured in-between our weather recording intervals... More about our weather records

Advertising

Liestal weather history for previous 24 hours

 ConditionsComfort  
Time TempWeatherWind HumidityBarometerVisibility
3:00 PM
Dec 18
54 °FPartly sunny.6 mph88%30.12 "HgN/A
2:30 PM54 °FPartly sunny.5 mph88%30.12 "HgN/A
2:00 PM54 °FPartly sunny.7 mph88%30.09 "HgN/A
1:30 PM52 °FPartly sunny.3 mph94%30.09 "HgN/A
1:00 PM50 °FPartly sunny.3 mph100%30.09 "HgN/A
12:30 PM50 °FDrizzle. Partly sunny.3 mph94%30.09 "Hg4 mi
12:00 PM48 °FPartly sunny.5 mph100%30.09 "HgN/A
11:30 AM48 °FPartly sunny.6 mph94%30.09 "HgN/A
11:00 AM48 °FLight rain. Partly sunny.5 mph94%30.09 "Hg6 mi
10:30 AM48 °FLight rain. Partly sunny.7 mph94%30.09 "Hg6 mi
10:00 AM46 °FLight rain. Partly sunny.3 mph93%30.09 "Hg4 mi
9:30 AM46 °FLight rain. Partly sunny.5 mph93%30.09 "Hg4 mi
9:00 AM46 °FLight rain. Partly sunny.5 mph93%30.07 "Hg4 mi
8:30 AM46 °FLight rain. Broken clouds.6 mph93%30.07 "Hg4 mi
8:00 AM45 °FLight rain. Passing clouds.5 mph100%30.07 "Hg4 mi
7:30 AM46 °FLight rain. Partly cloudy.6 mph93%30.07 "Hg4 mi
7:00 AM45 °FLight rain. Partly cloudy.5 mph100%30.04 "Hg4 mi
6:30 AM45 °FLight rain. Passing clouds.3 mph100%30.04 "Hg4 mi
6:00 AM45 °FLight rain. Passing clouds.6 mph100%30.04 "Hg4 mi
5:30 AM45 °FLight rain. Low clouds.3 mph93%30.04 "Hg5 mi
4:30 AM45 °FLight rain. Overcast.2 mph100%30.04 "Hg5 mi
4:00 AM45 °FOvercast.No wind93%30.04 "HgN/A
3:30 AM45 °FOvercast.3 mph93%30.04 "Hg5 mi
3:00 AM45 °FOvercast.No wind93%30.07 "Hg4 mi
2:30 AM45 °FFog.2 mph93%30.04 "Hg3 mi
2:00 AM43 °FFog.2 mph100%30.04 "Hg3 mi
1:30 AM45 °FOvercast.No wind93%30.04 "Hg4 mi
1:00 AM45 °FOvercast.2 mph93%30.04 "Hg6 mi
12:30 AM45 °FOvercast.3 mph93%30.04 "HgN/A
12:00 AM45 °FLow clouds.2 mph93%30.04 "HgN/A
11:30 PM
Dec 17
45 °FMostly cloudy.6 mph93%30.01 "Hg5 mi
11:00 PM43 °FFog.3 mph100%30.01 "Hg3 mi
10:30 PM43 °FFog.3 mph100%30.01 "Hg3 mi
10:00 PM43 °FDrizzle. Fog.5 mph100%29.98 "Hg2 mi
9:30 PM43 °FDrizzle. Fog.3 mph100%29.98 "Hg1 mi
9:00 PM43 °FDrizzle. Fog.2 mph100%29.98 "Hg1 mi
8:30 PM43 °FLight rain. Fog.3 mph100%29.98 "Hg1 mi
8:00 PM43 °FLight rain. Fog.3 mph93%29.98 "Hg1 mi
7:30 PM43 °FLight rain. Fog.6 mph93%29.95 "Hg2 mi
7:00 PM43 °FPassing clouds.3 mph93%29.95 "Hg4 mi
6:30 PM43 °FLight rain. Passing clouds.2 mph93%29.92 "HgN/A
6:00 PM43 °FLight rain. Partly cloudy.2 mph93%29.92 "Hg6 mi
5:30 PM43 °FLight rain. Passing clouds.No wind93%29.89 "Hg6 mi
5:00 PM43 °FLight rain. Passing clouds.3 mph93%29.89 "HgN/A
4:30 PM41 °FLight rain. Partly sunny.6 mph100%29.89 "HgN/A
4:00 PM43 °FLight rain. Partly sunny.2 mph93%29.89 "HgN/A
3:30 PM41 °FLight rain. Partly sunny.5 mph93%29.86 "HgN/A
3:00 PM41 °FLight rain. Partly sunny.6 mph93%29.86 "HgN/A
Weather by CustomWeather, © 2014

See weather overviewHow to use our weather pages